Vorticity
18 2 -11 -0 4 20 4 11 -0 16 2 1 -8 2 3 8 -8 -30 10 8 8 4 10 11 10 16 16 12 15 18 10 3 9 12 8 8 5 4 7 10 10 7 6 5
25 4 3 -6 -4 3 14 35 -12 14 10 14 7 -6 22 -6 21 11 7 9 8 8 7 7 10 9 11 19 11 10 12 14 13 9 5 7 9 9 12 7 7 6 5 5
24 3 2 7 6 3 2 14 4 19 9 8 3 10 -3 15 16 22 10 10 8 7 8 8 8 5 5 7 10 9 14 5 4 8 10 9 9 10 6 6 5 5 6 6
-2 15 1 16 8 4 -2 1 1 9 -1 5 23 8 12 20 -9 13 15 8 6 9 7 7 7 4 4 8 9 9 1 9 9 8 7 10 8 5 6 5 5 5 7 7
-5 2 4 11 5 10 8 20 19 22 11 13 14 12 -5 4 11 9 3 7 10 5 20 13 8 9 10 9 10 10 11 10 10 9 10 6 6 6 5 5 7 7 8 6
15 2 -1 18 5 14 5 6 20 3 7 9 6 1 4 9 5 10 13 10 13 9 14 12 12 13 13 12 11 9 10 7 12 7 6 6 5 4 5 6 7 7 7 5
12 9 10 15 11 9 0 4 20 12 11 9 9 3 7 1 1 6 10 12 12 12 14 13 14 13 13 12 10 9 12 10 6 5 4 2 3 3 6 8 9 7 7 6
20 5 1 24 4 9 6 -10 -0 1 7 7 8 10 6 6 2 6 9 11 12 13 14 15 15 14 15 13 13 10 6 4 2 1 2 2 4 7 8 8 7 7 8 11
-8 2 10 20 5 12 4 -2 7 9 20 9 7 5 5 4 5 9 11 10 10 11 13 15 15 14 13 8 5 3 2 0 1 2 2 4 7 8 8 8 9 8 12 5
23 1 15 27 22 -5 -7 8 -0 10 3 5 4 5 6 9 9 11 11 10 10 11 12 11 8 5 4 3 2 1 0 1 1 2 4 7 10 7 9 10 7 7 -2 1
-3 -1 7 -2 2 5 15 6 1 8 11 16 9 2 -6 7 8 8 9 9 10 9 6 5 3 3 2 1 0 1 2 2 3 4 7 10 8 9 7 9 5 7 7 10
19 -22 30 -2 10 8 -1 -0 6 8 5 10 14 15 21 11 5 9 9 10 6 4 4 3 3 1 0 0 2 3 4 5 7 6 10 10 13 14 4 6 2 -2 -12 8
12 9 13 9 1 1 1 4 3 16 5 7 15 15 15 11 7 8 10 10 6 4 3 1 0 1 1 2 5 4 4 9 10 17 13 4 1 -10 3 9 11 7 7 7
13 16 9 11 3 11 24 -5 -9 4 5 1 6 4 14 14 9 7 9 10 9 8 5 4 3 3 4 5 -1 14 4 10 15 -5 2 15 11 7 1 21 -2 1 8 11
11 14 18 10 23 21 4 6 -2 3 3 3 -1 13 -3 16 15 8 4 5 9 10 8 8 6 7 2 3 9 13 6 17 -5 11 15 -7 4 12 22 -5 8 10 8 11
11 17 19 21 15 16 21 6 2 4 -6 14 4 3 11 7 7 8 10 8 12 10 9 4 6 24 9 9 5 13 2 9 8 6 6 6 14 12 -15 4 9 10 13 10
29 21 6 9 25 22 14 16 27 25 19 0 9 4 3 6 8 8 12 7 3 13 18 16 15 8 5 2 -1 7 16 17 3 0 8 14 11 -10 -1 10 9 10 4 1
8 9 6 5 5 5 2 4 7 5 10 9 2 -2 5 -7 19 4 -7 8 3 -3 17 11 7 -1 11 5 13 25 -4 8 5 15 10 13 0 -1 10 11 7 2 4 8
12 12 6 6 9 11 11 8 8 5 6 10 12 10 13 7 14 13 11 17 10 -0 -6 5 17 17 13 -7 2 5 6 9 15 14 9 -2 8 10 6 4 3 7 8 14
16 13 8 5 4 9 19 17 15 13 16 11 15 8 21 6 -2 0 29 30 24 31 29 24 0 7 14 11 9 8 9 6 2 2 8 7 8 3 3 5 7 10 14 12
13 19 19 16 15 11 13 12 15 8 14 9 13 1 -2 6 26 10 -5 13 -2 3 6 9 11 9 5 6 8 6 4 5 7 9 6 3 4 5 6 8 13 13 10 10
10 13 12 9 3 9 4 1 -6 2 6 34 8 14 20 21 17 11 -3 -0 6 10 9 11 11 9 5 2 4 8 11 7 5 5 6 6 6 9 12 12 10 13 16 18
12 15 16 12 12 9 23 30 22 20 29 1 5 9 10 8 8 5 3 5 8 9 6 3 3 5 7 6 4 4 6 6 5 5 7 9 11 12 12 17 19 21 20 18
6 9 9 10 8 7 8 9 7 9 4 3 6 6 6 8 7 10 13 11 5 1 2 5 7 7 8 8 7 6 6 7 9 10 11 12 16 20 22 21 16 11 9 9
10 11 7 5 5 8 8 6 4 5 8 9 10 9 8 6 2 2 4 8 8 7 6 8 8 7 6 5 7 9 10 11 12 16 22 24 21 17 14 13 16 19 16 13
8 8 8 7 7 7 6 6 6 6 5 4 3 4 5 6 6 7 6 5 5 7 8 6 5 7 9 10 12 14 17 22 25 23 18 15 14 14 15 13 11 13 20 24
5 5 5 5 5 6 6 5 6 6 4 4 5 6 7 7 7 7 9 10 10 10 11 11 11 13 16 20 25 26 23 18 15 15 15 13 13 16 17 14 16 24 30 32
Height
5671 5678 5684 5688 5690 5693 5693 5693 5696 5701 5699 5704 5706 5708 5703 5698 5706 5704 5705 5706 5706 5703 5705 5706 5706 5705 5706 5706 5706 5703 5704 5702 5705 5703 5702 5701 5699 5697 5694 5691 5688 5685 5681 5677
5659 5666 5672 5676 5680 5685 5687 5691 5691 5694 5695 5700 5703 5701 5699 5699 5699 5700 5699 5699 5699 5698 5697 5698 5698 5698 5699 5699 5697 5697 5695 5696 5695 5694 5693 5693 5691 5688 5686 5683 5679 5675 5671 5666
5648 5656 5662 5664 5672 5677 5682 5682 5685 5686 5690 5694 5694 5695 5694 5691 5689 5690 5691 5692 5692 5691 5690 5690 5690 5690 5689 5689 5689 5688 5688 5688 5687 5686 5684 5682 5680 5677 5674 5672 5669 5665 5661 5656
5641 5647 5646 5653 5663 5668 5670 5672 5675 5678 5682 5684 5684 5687 5687 5684 5682 5682 5684 5685 5684 5683 5682 5681 5682 5682 5681 5681 5680 5680 5680 5679 5677 5676 5674 5672 5670 5667 5664 5661 5657 5653 5648 5643
5629 5635 5643 5648 5656 5659 5662 5666 5669 5671 5672 5675 5677 5678 5675 5676 5678 5676 5676 5676 5675 5674 5673 5672 5673 5673 5673 5672 5672 5671 5671 5669 5668 5666 5665 5663 5660 5658 5654 5650 5646 5641 5635 5629
5624 5627 5630 5640 5650 5655 5658 5654 5662 5662 5665 5666 5669 5667 5668 5670 5671 5672 5668 5667 5666 5665 5664 5664 5664 5664 5664 5663 5663 5662 5661 5660 5659 5658 5656 5653 5651 5647 5643 5638 5633 5627 5621 5615
5616 5619 5625 5636 5645 5649 5648 5659 5653 5655 5657 5659 5660 5659 5661 5663 5663 5663 5662 5660 5658 5657 5656 5656 5655 5655 5655 5654 5654 5654 5653 5652 5651 5649 5646 5643 5639 5634 5630 5624 5618 5612 5606 5600
5610 5614 5620 5632 5635 5639 5645 5649 5648 5648 5650 5649 5650 5652 5654 5655 5654 5654 5653 5651 5650 5648 5648 5647 5647 5646 5646 5646 5646 5645 5644 5642 5641 5638 5635 5630 5625 5620 5615 5609 5603 5596 5589 5583
5601 5607 5615 5623 5627 5634 5638 5638 5638 5638 5642 5642 5641 5644 5645 5646 5645 5644 5643 5642 5641 5640 5639 5639 5638 5638 5638 5638 5637 5636 5634 5631 5628 5625 5621 5616 5611 5606 5600 5594 5588 5582 5575 5568
5594 5602 5607 5616 5619 5623 5626 5629 5630 5629 5630 5633 5631 5636 5637 5637 5636 5635 5634 5632 5632 5631 5631 5631 5630 5630 5629 5628 5627 5625 5622 5619 5615 5611 5606 5602 5596 5590 5584 5578 5573 5567 5560 5553
5588 5594 5597 5601 5604 5613 5616 5618 5619 5621 5622 5624 5624 5627 5627 5627 5627 5625 5624 5623 5623 5622 5621 5621 5620 5620 5618 5617 5615 5612 5609 5606 5601 5596 5591 5586 5580 5575 5569 5563 5557 5551 5544 5536
5582 5586 5580 5590 5594 5601 5606 5609 5613 5613 5614 5614 5614 5615 5615 5616 5616 5616 5615 5615 5613 5612 5611 5610 5609 5608 5607 5605 5603 5599 5596 5591 5586 5581 5575 5570 5564 5560 5554 5547 5540 5532 5525 5517
5569 5571 5577 5585 5589 5594 5597 5599 5601 5603 5604 5604 5605 5605 5606 5606 5606 5605 5605 5605 5604 5603 5602 5600 5598 5596 5594 5591 5588 5585 5580 5575 5570 5565 5559 5553 5548 5542 5535 5528 5521 5513 5505 5495
5561 5566 5572 5577 5580 5583 5588 5589 5590 5592 5595 5594 5595 5595 5595 5595 5594 5594 5594 5593 5592 5592 5590 5588 5587 5583 5579 5576 5573 5568 5563 5559 5553 5547 5541 5535 5529 5522 5516 5510 5502 5494 5484 5477
5554 5560 5563 5567 5569 5572 5576 5579 5582 5583 5583 5583 5583 5584 5584 5583 5582 5581 5581 5582 5581 5580 5577 5575 5572 5567 5563 5558 5555 5551 5546 5541 5535 5529 5522 5515 5509 5503 5496 5489 5480 5472 5465 5458
5548 5551 5554 5556 5559 5562 5564 5568 5569 5571 5574 5573 5574 5573 5572 5572 5572 5571 5570 5568 5566 5564 5562 5559 5554 5550 5546 5542 5537 5533 5528 5523 5517 5511 5504 5498 5491 5484 5477 5469 5459 5450 5442 5435
5542 5544 5547 5549 5551 5553 5555 5557 5557 5559 5560 5561 5562 5562 5562 5561 5559 5557 5555 5554 5552 5549 5545 5541 5538 5533 5529 5524 5520 5515 5510 5505 5500 5493 5487 5479 5471 5464 5456 5447 5438 5430 5421 5414
5536 5539 5540 5542 5543 5544 5545 5548 5549 5549 5549 5549 5549 5550 5548 5547 5545 5543 5540 5538 5535 5532 5529 5525 5521 5517 5513 5508 5503 5498 5492 5485 5479 5473 5466 5459 5452 5444 5435 5426 5417 5408 5398 5388
5528 5530 5531 5532 5532 5533 5534 5535 5536 5536 5537 5536 5536 5536 5534 5532 5530 5527 5524 5521 5517 5514 5511 5507 5503 5499 5495 5490 5484 5478 5472 5465 5459 5453 5445 5439 5431 5422 5412 5404 5395 5385 5375 5364
5518 5519 5521 5522 5524 5525 5525 5525 5526 5526 5525 5524 5523 5522 5520 5518 5515 5512 5508 5503 5500 5497 5494 5490 5486 5479 5475 5470 5465 5458 5452 5445 5439 5433 5426 5416 5408 5400 5390 5380 5371 5361 5349 5339
5511 5512 5512 5513 5513 5513 5513 5513 5512 5512 5510 5509 5508 5507 5505 5501 5498 5494 5492 5488 5485 5481 5476 5471 5466 5461 5457 5452 5445 5438 5432 5425 5418 5411 5403 5394 5385 5375 5365 5356 5345 5335 5325 5315
5501 5500 5501 5501 5501 5500 5500 5500 5500 5499 5497 5495 5494 5492 5489 5486 5482 5479 5475 5471 5466 5463 5458 5453 5449 5444 5437 5431 5425 5419 5411 5404 5396 5387 5379 5370 5361 5351 5340 5329 5319 5309 5299 5289
5494 5493 5492 5492 5491 5490 5489 5488 5486 5485 5483 5481 5479 5477 5474 5470 5466 5463 5459 5455 5450 5446 5440 5436 5430 5424 5417 5411 5404 5397 5389 5381 5373 5364 5355 5344 5334 5323 5313 5303 5293 5283 5273 5264
5485 5484 5483 5482 5480 5478 5477 5475 5474 5472 5470 5468 5465 5461 5458 5455 5451 5446 5442 5437 5433 5428 5422 5417 5410 5403 5396 5389 5382 5374 5365 5356 5347 5337 5327 5316 5306 5296 5286 5277 5268 5259 5250 5241
5474 5473 5472 5471 5469 5467 5464 5462 5460 5457 5454 5451 5448 5445 5441 5437 5433 5429 5424 5418 5413 5409 5402 5396 5388 5381 5373 5365 5357 5348 5339 5329 5319 5309 5299 5289 5279 5269 5260 5252 5243 5234 5226 5218
5464 5462 5460 5458 5456 5453 5451 5448 5445 5442 5439 5435 5432 5427 5423 5419 5414 5408 5403 5398 5391 5384 5379 5372 5366 5358 5349 5340 5330 5320 5311 5301 5292 5283 5274 5264 5255 5245 5236 5227 5219 5211 5202 5194
5452 5450 5447 5445 5442 5439 5436 5432 5429 5425 5422 5418 5413 5409 5404 5398 5393 5388 5382 5377 5370 5364 5356 5349 5340 5332 5324 5314 5305 5295 5285 5277 5268 5260 5250 5241 5231 5221 5212 5203 5194 5186 5178 5172